502  
ASUS44 KMOB 051213  
RWRMOB  
REGIONAL WEATHER ROUNDUP  
NATIONAL WEATHER SERVICE MOBILE AL  
700 AM CDT TUE JUL 05 2022  
 
NOTE: "FAIR" INDICATES FEW OR NO CLOUDS BELOW 12,000 FEET WITH NO  
SIGNIFICANT WEATHER AND/OR S TO VISIBILITY
.  
 
* THESE STATIONS ARE PART OF THE UNIVERSITY OF SOUTH ALABAMA  
MESONET AND ARE NOT UNDER NWS OR FAA QUALITY CONTROL.
 
 
ALZ061>064-051300-  
COASTAL ALABAMA  
 
CITY SKY/WX TMP DP RH WIND PRES REMARKS
 
MOBILE REG APT MOSUNNY 79 76 90 CALM 30.09R FOG  
6HR MIN TEMP: 75; 6HR MAX TEMP: 79;  
 
BROOKLEY FIELD MOSUNNY 79 78 97 CALM 30.09R FOG  
6HR MIN TEMP: 75; 6HR MAX TEMP: 79;  
 
USA CAMPUS* NOT AVBL  
DOG RIVER* NOT AVBL  
 
 
CITY SKY/WX TMP DP RH WIND PRES REMARKS
 
GULF SHORES PTSUNNY 79 79 100 CALM 30.08R FOG  
 

 
 
ALZ051>060-051300-  
INTERIOR SOUTHWEST AND SOUTH CENTRAL ALABAMA  
 
CITY SKY/WX TMP DP RH WIND PRES REMARKS
 
GREENVILLE SUNNY 73 73 100 CALM 30.10R  
6HR MIN TEMP: 70; 6HR MAX TEMP: 73;  
 
EVERGREEN FOG 73 72 96 CALM 30.11R VSB<1/4  
6HR MIN TEMP: 71; 6HR MAX TEMP: 74;  
 
ATMORE* N/A 75 75 100 CALM 30.11R  
ANDALUSIA/OPP NOT AVBL  
ANDALUSIA* N/A N/A N/A N/A CALM 30.11S  
FLORALA APT SUNNY 77 73 87 CALM 30.12R  
6HR MIN TEMP: 73; 6HR MAX TEMP: 77;  
 
FLORALA* NOT AVBL  
 

 
 
FLZ001>006-051300-  
WESTERN FLORIDA PANHANDLE  
 
CITY SKY/WX TMP DP RH WIND PRES REMARKS
 
PENSACOLA SUNNY 79 78 97 NE5 30.09R FOG  
6HR MIN TEMP: 77; 6HR MAX TEMP: 79;  
 
NAS PENSACOLA MOSUNNY 79 76 90 CALM 30.08R FOG  
6HR MIN TEMP: 74; 6HR MAX TEMP: 79;  
 
MILTON NOT AVBL  
WHTNG S FIELD NOT AVBL  
 
 
CITY SKY/WX TMP DP RH WIND PRES REMARKS
 
JAY* NOT AVBL  
DUKE FIELD SUNNY 76 74 95 CALM 30.10R  
CRESTVIEW MOSUNNY 75 74 96 CALM 30.11R FOG  
6HR MIN TEMP: 72; 6HR MAX TEMP: 75;  
 
VALPARAISO SUNNY 77 74 91 CALM 30.07R  
6HR MIN TEMP: 74; 6HR MAX TEMP: 77;  
 
DESTIN SUNNY 81 76 84 NE3 30.09R  
6HR MIN TEMP: 77; 6HR MAX TEMP: 81;  
 

 
 
MSZ076-079-051300-  
INTERIOR SOUTHEAST MISSISSIPPI  
 
CITY SKY/WX TMP DP RH WIND PRES REMARKS
 
LEAKESVILLE* NOT AVBL  
AGRICOLA* NOT AVBL  
 

 
 
MARINE OBSERVATIONS  
 
STATION/POSITION TIME TEMP WIND PRES WAVE
 
AIR SEA DIR/SP/G HT/PER  
(UTC) (F) (DEG/KT/KT) (MB) (FT/S)  
PETIT BOIS ISLND 1130 190/ 5/ 6 1018.6R  
CEDAR POINT 1000 82 1017.3  
E DAUPHIN ISLAND NOT AVBL  
USCG MOBILE BAY 1130 78 86 260/ 1/ 2 1018.3R  
STATE DOCKS 1130 79 87 1016.9R  
WEEKS BAY 1045 75 1018.0S  
FORT MORGAN 1130 82 160/ 10/ 12 1018.3R  
12 S ORANGE BCH 1150 84 230/ 4/ 4 N/A 1/ 7  
PENSACOLA BAY 1130 80 85 100/ 2/ 3 1018.6R  
64 S DAUPHIN ISL 1200 82 210/ 14/ 16 1019.2  
 

 
 
SELECTED LOCATIONS ACROSS THE REGION  
 
CITY SKY/WX TMP DP RH WIND PRES REMARKS
 
NEW ORLEANS PTSUNNY 82 78 88 CALM 30.06R  
GULFPORT MOSUNNY 79 76 90 CALM 30.06R  
PASCAGOULA AP MOSUNNY 78 77 96 CALM 30.07R FOG  
PASCAGOULA* NOT AVBL  
HATTIESBURG MOSUNNY 75 74 96 CALM 30.08R  
LAUREL CLOUDY 73 73 100 CALM 30.09S FOG  
MERIDIAN MOSUNNY 73 72 96 CALM 30.09R  
JACKSON MOSUNNY 75 75 100 S3 30.07R  
MONTGOMERY MOSUNNY 77 73 87 CALM 30.11R  
TROY SUNNY 76 71 85 CALM 30.12R  
ASHFORD* N/A N/A N/A N/A CALM 30.11S  
DOTHAN SUNNY 77 77 100 CALM 30.13R FOG  
PANAMA CITY FOG 75 75 100 CALM 30.09R VSB 1/2  
 

 
 
 
 
CLICK HERE TO GO TO PREVIOUS BULLETINS.

The Nexlab AL Page
The Nexlab FL Page
The Nexlab MS Page Main Text Page